EZY71NQ LDSP-EGKK

Flight info

Callsign EZY71NQ
Flight time 2h 12m
Altitude 36000
Route ZDA DCT PEVAL DCT BABAG DCT SUMIR DCT SAFFA DCT ELMUR DCT RIPUS DCT DITON DCT HOC DCT LUL DCT RLP DCT ROTSI DCT KOTUN DCT NINAL DCT KESAX DCT KUNAV
Aircraft A319/M-SDE2E3FGIJ1RWXYZ/LB1

Departure

Time 2026-05-04 18:22
Airport Split Saint Jerome Airport (LDSP)

Arrival

Time 2026-05-04 20:34
Airport London Gatwick Airport (EGKK)
Time Latitude Longitude Altitude Speed Heading
2026-05-04 17:24 43.53729 16.29873 68 ft 0 kts 114°
2026-05-04 17:42 43.53729 16.29872 68 ft 0 kts 114°
2026-05-04 18:05 43.53737 16.29847 58 ft 4 kts 114°
2026-05-04 18:06 43.53747 16.29805 61 ft 0 kts 96°
2026-05-04 18:09 43.53745 16.29819 58 ft 3 kts 105°
2026-05-04 18:09 43.53762 16.29808 66 ft 4 kts 268°
2026-05-04 18:10 43.53740 16.29760 62 ft 8 kts 232°
2026-05-04 18:10 43.53697 16.29686 68 ft 11 kts 232°
2026-05-04 18:10 43.53671 16.29608 64 ft 2 kts 270°
2026-05-04 18:10 43.53672 16.29602 65 ft 0 kts 281°
2026-05-04 18:17 43.53673 16.29601 65 ft 1 kts 282°
2026-05-04 18:18 43.53680 16.29585 67 ft 1 kts 306°
2026-05-04 18:18 43.53681 16.29583 67 ft 0 kts 306°
2026-05-04 18:18 43.53696 16.29550 68 ft 5 kts 295°
2026-05-04 18:18 43.53697 16.29496 78 ft 8 kts 260°
2026-05-04 18:19 43.53618 16.29297 84 ft 13 kts 233°
2026-05-04 18:19 43.53552 16.29177 81 ft 18 kts 233°
2026-05-04 18:19 43.53466 16.29023 80 ft 22 kts 232°
2026-05-04 18:20 43.53370 16.28850 80 ft 22 kts 232°
2026-05-04 18:20 43.53277 16.28686 82 ft 18 kts 231°
2026-05-04 18:20 43.53207 16.28615 74 ft 12 kts 217°
2026-05-04 18:20 43.53226 16.28587 76 ft 6 kts 14°
2026-05-04 18:21 43.53289 16.28697 81 ft 37 kts 53°
2026-05-04 18:21 43.53601 16.29264 81 ft 108 kts 52°
2026-05-04 18:21 43.54180 16.30290 86 ft 159 kts 51°
2026-05-04 18:21 43.54874 16.31507 628 ft 160 kts 53°
2026-05-04 18:22 43.55522 16.32795 1054 ft 174 kts 65°
2026-05-04 18:22 43.55656 16.34519 1400 ft 191 kts 104°
2026-05-04 18:22 43.55000 16.36096 1986 ft 193 kts 139°
2026-05-04 18:22 43.53792 16.36854 2632 ft 195 kts 171°
2026-05-04 18:23 43.52393 16.37252 2935 ft 218 kts 160°
2026-05-04 18:23 43.50937 16.38194 3245 ft 244 kts 154°
2026-05-04 18:23 43.49357 16.39307 3731 ft 264 kts 153°
2026-05-04 18:23 43.47709 16.40483 4567 ft 269 kts 156°
2026-05-04 18:24 43.45876 16.40927 5399 ft 272 kts 189°
2026-05-04 18:24 43.44171 16.39881 6308 ft 273 kts 219°
2026-05-04 18:24 43.42885 16.37950 7186 ft 276 kts 233°
2026-05-04 18:24 43.41813 16.35741 8027 ft 280 kts 237°
2026-05-04 18:25 43.40783 16.33458 8893 ft 282 kts 237°
2026-05-04 18:25 43.39719 16.31179 9771 ft 285 kts 236°
2026-05-04 18:25 43.38593 16.28913 10490 ft 293 kts 234°
2026-05-04 18:25 43.37357 16.26551 10746 ft 316 kts 233°
2026-05-04 18:26 43.36034 16.24005 10957 ft 339 kts 239°
2026-05-04 18:26 43.35365 16.20859 11426 ft 353 kts 267°
2026-05-04 18:26 43.35838 16.17547 12084 ft 361 kts 294°
2026-05-04 18:26 43.37329 16.14760 12782 ft 367 kts 315°
2026-05-04 18:27 43.39356 16.12601 13503 ft 371 kts 326°
2026-05-04 18:27 43.41575 16.10745 14168 ft 375 kts 329°
2026-05-04 18:27 43.43829 16.08912 14791 ft 378 kts 328°
2026-05-04 18:27 43.46052 16.06955 15419 ft 381 kts 325°
2026-05-04 18:28 43.48219 16.04841 16049 ft 383 kts 322°
2026-05-04 18:28 43.50341 16.02595 16684 ft 386 kts 321°
2026-05-04 18:28 43.52439 16.00260 17311 ft 389 kts 320°
2026-05-04 18:28 43.54534 15.97876 17912 ft 393 kts 319°
2026-05-04 18:29 43.56654 15.95464 18497 ft 397 kts 320°
2026-05-04 18:29 43.58799 15.93045 19028 ft 399 kts 320°
2026-05-04 18:29 43.60963 15.90626 19577 ft 402 kts 320°
2026-05-04 18:29 43.63150 15.88201 20127 ft 404 kts 320°
2026-05-04 18:30 43.67569 15.83329 21179 ft 409 kts 321°
2026-05-04 18:30 43.69798 15.80873 21688 ft 411 kts 321°
2026-05-04 18:30 43.72037 15.78397 22183 ft 413 kts 320°
2026-05-04 18:31 43.74285 15.75898 22674 ft 416 kts 320°
2026-05-04 18:31 43.76543 15.73385 23150 ft 418 kts 320°
2026-05-04 18:31 43.78817 15.70855 23621 ft 420 kts 320°
2026-05-04 18:31 43.81101 15.68312 24013 ft 423 kts 320°
2026-05-04 18:32 43.83397 15.65752 24398 ft 424 kts 320°
2026-05-04 18:32 43.85698 15.63182 24772 ft 427 kts 320°
2026-05-04 18:32 43.88015 15.60589 25098 ft 430 kts 320°
2026-05-04 18:32 43.90349 15.57975 25459 ft 432 kts 320°
2026-05-04 18:33 43.92690 15.55351 25834 ft 434 kts 320°
2026-05-04 18:33 43.95041 15.52720 26211 ft 435 kts 320°
2026-05-04 18:33 43.97402 15.50072 26577 ft 437 kts 320°
2026-05-04 18:33 43.99767 15.47416 26938 ft 439 kts 320°
2026-05-04 18:34 44.02145 15.44743 27288 ft 440 kts 320°
2026-05-04 18:34 44.04528 15.42060 27629 ft 442 kts 320°
2026-05-04 18:34 44.06924 15.39361 27968 ft 444 kts 319°
2026-05-04 18:34 44.09288 15.36586 28287 ft 445 kts 314°
2026-05-04 18:35 44.11358 15.33386 28567 ft 447 kts 308°
2026-05-04 18:35 44.13342 15.30044 28849 ft 449 kts 308°
2026-05-04 18:35 44.15331 15.26685 29149 ft 451 kts 308°
2026-05-04 18:35 44.17329 15.23309 29463 ft 452 kts 308°
2026-05-04 18:36 44.19333 15.19922 29817 ft 453 kts 308°
2026-05-04 18:36 44.21331 15.16550 30258 ft 451 kts 308°
2026-05-04 18:36 44.23327 15.13188 30632 ft 449 kts 308°
2026-05-04 18:36 44.25314 15.09835 31007 ft 448 kts 308°
2026-05-04 18:37 44.27294 15.06487 31383 ft 447 kts 308°
2026-05-04 18:37 44.29264 15.03142 31750 ft 445 kts 308°
2026-05-04 18:37 44.31225 14.99806 32133 ft 444 kts 308°
2026-05-04 18:37 44.33181 14.96475 32529 ft 442 kts 308°
2026-05-04 18:38 44.35124 14.93161 32926 ft 440 kts 308°
2026-05-04 18:38 44.37063 14.89854 33327 ft 439 kts 308°
2026-05-04 18:38 44.38992 14.86563 33727 ft 437 kts 308°
2026-05-04 18:38 44.40914 14.83278 34124 ft 435 kts 308°
2026-05-04 18:39 44.42828 14.80002 34458 ft 435 kts 308°
2026-05-04 18:39 44.44738 14.76732 34770 ft 434 kts 308°
2026-05-04 18:39 44.46646 14.73463 35105 ft 433 kts 308°
2026-05-04 18:39 44.48544 14.70204 35440 ft 431 kts 308°
2026-05-04 18:40 44.50433 14.66956 35770 ft 429 kts 308°
2026-05-04 18:40 44.52316 14.63718 36041 ft 428 kts 308°
2026-05-04 18:40 44.54194 14.60491 36091 ft 427 kts 308°
2026-05-04 18:41 44.57942 14.54046 36102 ft 426 kts 308°
2026-05-04 18:41 44.61676 14.47594 36096 ft 426 kts 307°
2026-05-04 18:42 44.65394 14.41143 36096 ft 425 kts 307°
2026-05-04 18:42 44.69114 14.34683 36093 ft 426 kts 307°
2026-05-04 18:43 44.72838 14.28197 36091 ft 426 kts 307°
2026-05-04 18:43 44.76556 14.21710 36087 ft 426 kts 307°
2026-05-04 18:44 44.80277 14.15201 36100 ft 426 kts 307°
2026-05-04 18:44 44.83976 14.08712 36103 ft 425 kts 307°
2026-05-04 18:45 44.87677 14.02218 36089 ft 425 kts 307°
2026-05-04 18:45 44.91374 13.95719 36086 ft 425 kts 307°
2026-05-04 18:46 44.95065 13.89201 36084 ft 425 kts 307°
2026-05-04 18:46 44.98751 13.82666 36076 ft 425 kts 306°
2026-05-04 18:47 45.02439 13.76126 36089 ft 425 kts 307°
2026-05-04 18:47 45.06130 13.69589 36084 ft 425 kts 306°
2026-05-04 18:48 45.09809 13.63041 36086 ft 425 kts 306°
2026-05-04 18:48 45.13483 13.56486 36068 ft 425 kts 306°
2026-05-04 18:49 45.17146 13.49924 36083 ft 425 kts 306°
2026-05-04 18:49 45.20807 13.43352 36075 ft 425 kts 306°
2026-05-04 18:50 45.23854 13.37878 36070 ft 425 kts 306°
2026-05-04 18:50 45.27521 13.31276 36066 ft 426 kts 306°
2026-05-04 18:51 45.31189 13.24658 36068 ft 426 kts 307°
2026-05-04 18:51 45.35042 13.18240 36068 ft 427 kts 309°
2026-05-04 18:52 45.39002 13.11950 36058 ft 426 kts 305°
2026-05-04 18:52 45.42542 13.05193 36073 ft 425 kts 304°
2026-05-04 18:53 45.46004 12.98356 36060 ft 426 kts 303°
2026-05-04 18:53 45.49448 12.91494 36063 ft 426 kts 303°
2026-05-04 18:54 45.52895 12.84625 36058 ft 426 kts 303°
2026-05-04 18:54 45.56353 12.77759 36054 ft 426 kts 303°
2026-05-04 18:55 45.59816 12.70890 36052 ft 426 kts 303°
2026-05-04 18:55 45.64999 12.60554 36055 ft 427 kts 303°
2026-05-04 18:56 45.68446 12.53644 36065 ft 427 kts 303°
2026-05-04 18:56 45.71892 12.46715 36066 ft 427 kts 303°
2026-05-04 18:57 45.75338 12.39777 36066 ft 428 kts 303°
2026-05-04 18:57 45.78783 12.32826 36073 ft 428 kts 303°
2026-05-04 18:58 45.82194 12.25926 36081 ft 428 kts 303°
2026-05-04 18:58 45.85662 12.18889 36089 ft 429 kts 302°
2026-05-04 18:59 45.89093 12.11900 36082 ft 429 kts 302°
2026-05-04 18:59 45.92524 12.04896 36096 ft 429 kts 302°
2026-05-04 19:00 45.95955 11.97888 36098 ft 429 kts 302°
2026-05-04 19:00 45.99387 11.90869 36127 ft 429 kts 302°
2026-05-04 19:01 46.02814 11.83828 36113 ft 430 kts 302°
2026-05-04 19:01 46.06241 11.76774 36106 ft 430 kts 302°
2026-05-04 19:02 46.09669 11.69707 36106 ft 430 kts 302°
2026-05-04 19:02 46.13089 11.62632 36123 ft 430 kts 302°
2026-05-04 19:03 46.16504 11.55536 36115 ft 430 kts 302°
2026-05-04 19:03 46.19919 11.48437 36128 ft 431 kts 302°
2026-05-04 19:04 46.23332 11.41330 36124 ft 431 kts 302°
2026-05-04 19:04 46.26739 11.34226 36124 ft 431 kts 302°
2026-05-04 19:05 46.30260 11.27211 36136 ft 432 kts 304°
2026-05-04 19:05 46.33849 11.20244 36197 ft 432 kts 304°
2026-05-04 19:06 46.37426 11.13245 36194 ft 432 kts 303°
2026-05-04 19:06 46.40973 11.06207 36160 ft 432 kts 303°
2026-05-04 19:07 46.44510 10.99156 36173 ft 433 kts 303°
2026-05-04 19:07 46.48052 10.92085 36177 ft 434 kts 303°
2026-05-04 19:08 46.51591 10.84999 36178 ft 434 kts 303°
2026-05-04 19:08 46.55145 10.77901 36160 ft 435 kts 303°
2026-05-04 19:09 46.58697 10.70794 36156 ft 435 kts 303°
2026-05-04 19:09 46.62234 10.63656 36157 ft 435 kts 303°
2026-05-04 19:10 46.65767 10.56500 36162 ft 435 kts 303°
2026-05-04 19:10 46.69300 10.49344 36158 ft 435 kts 303°
2026-05-04 19:11 46.72827 10.42170 36142 ft 435 kts 300°
2026-05-04 19:11 46.75465 10.34325 36128 ft 431 kts 290°
2026-05-04 19:12 46.78951 10.22221 36112 ft 432 kts 290°
2026-05-04 19:13 46.81266 10.14142 36111 ft 432 kts 290°
2026-05-04 19:13 46.83581 10.06053 36109 ft 432 kts 290°
2026-05-04 19:14 46.85889 9.97958 36086 ft 432 kts 290°
2026-05-04 19:14 46.88185 9.89850 36077 ft 432 kts 290°
2026-05-04 19:15 46.90472 9.81732 36065 ft 432 kts 289°
2026-05-04 19:15 46.92757 9.73602 36060 ft 432 kts 289°
2026-05-04 19:16 46.95050 9.65473 36040 ft 432 kts 290°
2026-05-04 19:16 46.97302 9.57441 36038 ft 433 kts 289°
2026-05-04 19:17 46.99615 9.49171 36025 ft 433 kts 289°
2026-05-04 19:17 47.01879 9.41002 36037 ft 433 kts 289°
2026-05-04 19:18 47.04127 9.32881 36023 ft 433 kts 289°
2026-05-04 19:18 47.06390 9.24700 36021 ft 433 kts 289°
2026-05-04 19:19 47.08639 9.16567 36016 ft 433 kts 289°
2026-05-04 19:19 47.10885 9.08370 36036 ft 433 kts 289°
2026-05-04 19:20 47.13074 9.00361 36028 ft 433 kts 288°
2026-05-04 19:20 47.15259 8.92336 36025 ft 432 kts 288°
2026-05-04 19:21 47.17422 8.84163 36020 ft 431 kts 287°
2026-05-04 19:21 47.19508 8.75895 36019 ft 431 kts 287°
2026-05-04 19:22 47.21569 8.67675 36036 ft 431 kts 287°
2026-05-04 19:22 47.23657 8.59408 36029 ft 431 kts 287°
2026-05-04 19:23 47.25745 8.51133 36022 ft 431 kts 287°
2026-05-04 19:23 47.27791 8.43009 36037 ft 431 kts 287°
2026-05-04 19:24 47.29876 8.34730 36041 ft 431 kts 287°
2026-05-04 19:24 47.31928 8.26522 36056 ft 432 kts 286°
2026-05-04 19:25 47.33946 8.18400 36040 ft 432 kts 286°
2026-05-04 19:25 47.36005 8.10084 36030 ft 432 kts 286°
2026-05-04 19:26 47.37717 8.03182 36028 ft 432 kts 286°
2026-05-04 19:26 47.39763 7.94852 36023 ft 432 kts 286°
2026-05-04 19:27 47.41786 7.86565 36019 ft 432 kts 286°
2026-05-04 19:27 47.43712 7.78688 36015 ft 432 kts 286°
2026-05-04 19:28 47.45727 7.70402 36012 ft 432 kts 286°
2026-05-04 19:28 47.47439 7.61942 36008 ft 429 kts 280°
2026-05-04 19:29 47.48794 7.53838 36007 ft 429 kts 280°
2026-05-04 19:29 47.50218 7.45273 36027 ft 429 kts 280°
2026-05-04 19:30 47.51647 7.36697 36020 ft 429 kts 280°
2026-05-04 19:30 47.52975 7.28686 36016 ft 429 kts 280°
2026-05-04 19:31 47.54382 7.20105 36012 ft 429 kts 279°
2026-05-04 19:31 47.55783 7.11515 36029 ft 429 kts 279°
2026-05-04 19:32 47.57168 7.03027 36020 ft 429 kts 279°
2026-05-04 19:32 47.58556 6.94427 36014 ft 429 kts 279°
2026-05-04 19:33 47.59938 6.85823 36018 ft 429 kts 279°
2026-05-04 19:33 47.61094 6.78620 36008 ft 430 kts 279°
2026-05-04 19:34 47.62711 6.70145 36016 ft 436 kts 292°
2026-05-04 19:34 47.65801 6.62343 36003 ft 440 kts 296°
2026-05-04 19:35 47.68979 6.54572 35994 ft 441 kts 297°
2026-05-04 19:35 47.72155 6.46780 35992 ft 441 kts 296°
2026-05-04 19:36 47.75318 6.38967 35996 ft 441 kts 296°
2026-05-04 19:36 47.78471 6.31137 36024 ft 442 kts 296°
2026-05-04 19:37 47.81629 6.23279 36018 ft 443 kts 296°
2026-05-04 19:37 47.84783 6.15410 36014 ft 443 kts 296°
2026-05-04 19:38 47.88322 6.07857 36001 ft 448 kts 304°
2026-05-04 19:38 47.92220 6.00601 36002 ft 449 kts 304°
2026-05-04 19:39 47.96120 5.93325 36018 ft 449 kts 304°
2026-05-04 19:39 48.00024 5.86043 36007 ft 449 kts 304°
2026-05-04 19:40 48.03921 5.78747 36006 ft 449 kts 304°
2026-05-04 19:40 48.07810 5.71431 35993 ft 450 kts 304°
2026-05-04 19:41 48.11701 5.64097 36005 ft 450 kts 304°
2026-05-04 19:41 48.15588 5.56756 35995 ft 450 kts 304°
2026-05-04 19:42 48.19467 5.49401 36004 ft 450 kts 304°
2026-05-04 19:42 48.23341 5.42039 35988 ft 450 kts 304°
2026-05-04 19:43 48.27210 5.34663 35983 ft 450 kts 304°
2026-05-04 19:43 48.31086 5.27273 35980 ft 450 kts 304°
2026-05-04 19:44 48.34952 5.19874 35978 ft 450 kts 304°
2026-05-04 19:44 48.38817 5.12452 35992 ft 451 kts 304°
2026-05-04 19:45 48.42683 5.05015 35987 ft 451 kts 304°
2026-05-04 19:45 48.46534 4.97567 35971 ft 451 kts 303°
2026-05-04 19:46 48.50351 4.90154 35968 ft 451 kts 303°
2026-05-04 19:46 48.54194 4.82680 35979 ft 451 kts 303°
2026-05-04 19:47 48.58036 4.75200 36006 ft 450 kts 303°
2026-05-04 19:47 48.61861 4.67720 35982 ft 450 kts 303°
2026-05-04 19:48 48.65678 4.60241 35982 ft 449 kts 303°
2026-05-04 19:48 48.69492 4.52759 35981 ft 449 kts 303°
2026-05-04 19:49 48.73293 4.45274 35982 ft 448 kts 303°
2026-05-04 19:49 48.77087 4.37771 35983 ft 448 kts 303°
2026-05-04 19:50 48.80874 4.30266 35992 ft 448 kts 303°
2026-05-04 19:50 48.84660 4.22746 35988 ft 448 kts 303°
2026-05-04 19:51 48.88443 4.15230 35982 ft 448 kts 303°
2026-05-04 19:51 48.92212 4.07691 35976 ft 448 kts 303°
2026-05-04 19:52 48.95978 4.00144 35974 ft 448 kts 303°
2026-05-04 19:52 48.99741 3.92583 35962 ft 448 kts 303°
2026-05-04 19:53 49.03494 3.85010 35964 ft 448 kts 303°
2026-05-04 19:53 49.07252 3.77435 35965 ft 448 kts 303°
2026-05-04 19:54 49.10999 3.69846 35961 ft 448 kts 303°
2026-05-04 19:54 49.14743 3.62247 35966 ft 448 kts 303°
2026-05-04 19:55 49.18478 3.54636 35969 ft 448 kts 302°
2026-05-04 19:55 49.22202 3.47006 35984 ft 447 kts 302°
2026-05-04 19:56 49.25923 3.39380 35986 ft 447 kts 302°
2026-05-04 19:56 49.29639 3.31749 35980 ft 447 kts 302°
2026-05-04 19:57 49.33347 3.24118 35985 ft 446 kts 302°
2026-05-04 19:57 49.37047 3.16478 35982 ft 446 kts 302°
2026-05-04 19:58 49.40732 3.08824 35989 ft 446 kts 302°
2026-05-04 19:58 49.44415 3.01165 35984 ft 446 kts 302°
2026-05-04 19:59 49.48097 2.93502 35982 ft 446 kts 302°
2026-05-04 19:59 49.51776 2.85832 35989 ft 446 kts 303°
2026-05-04 20:00 49.55421 2.78186 35976 ft 446 kts 302°
2026-05-04 20:00 49.59109 2.70424 35983 ft 446 kts 302°
2026-05-04 20:01 49.62769 2.62707 35984 ft 446 kts 303°
2026-05-04 20:01 49.66401 2.55022 35987 ft 446 kts 302°
2026-05-04 20:02 49.70052 2.47276 35990 ft 446 kts 302°
2026-05-04 20:02 49.73695 2.39520 35999 ft 446 kts 303°
2026-05-04 20:03 49.77339 2.31742 36000 ft 447 kts 303°
2026-05-04 20:03 49.80986 2.23950 36004 ft 447 kts 303°
2026-05-04 20:04 49.84628 2.16133 35993 ft 448 kts 303°
2026-05-04 20:04 49.88265 2.08284 35992 ft 449 kts 303°
2026-05-04 20:05 49.91908 2.00421 35996 ft 449 kts 303°
2026-05-04 20:05 49.95550 1.92547 36001 ft 449 kts 303°
2026-05-04 20:06 49.99191 1.84655 35995 ft 449 kts 303°
2026-05-04 20:06 50.01011 1.80683 35569 ft 452 kts 302°
2026-05-04 20:06 50.02827 1.76704 35029 ft 451 kts 302°
2026-05-04 20:06 50.04639 1.72728 34494 ft 450 kts 302°
2026-05-04 20:07 50.06471 1.68776 33973 ft 451 kts 306°
2026-05-04 20:07 50.08649 1.65247 33362 ft 455 kts 316°
2026-05-04 20:07 50.11052 1.62014 32603 ft 457 kts 316°
2026-05-04 20:07 50.13460 1.58766 31757 ft 459 kts 316°
2026-05-04 20:08 50.15872 1.55500 30938 ft 460 kts 316°
2026-05-04 20:08 50.18283 1.52215 30138 ft 462 kts 316°
2026-05-04 20:08 50.20703 1.48912 29244 ft 462 kts 317°
2026-05-04 20:08 50.23119 1.45614 28353 ft 460 kts 317°
2026-05-04 20:09 50.25523 1.42338 27492 ft 458 kts 317°
2026-05-04 20:09 50.27913 1.39076 26649 ft 455 kts 317°
2026-05-04 20:09 50.30291 1.35824 25845 ft 453 kts 317°
2026-05-04 20:09 50.32654 1.32581 25059 ft 451 kts 317°
2026-05-04 20:10 50.35008 1.29349 24279 ft 449 kts 317°
2026-05-04 20:10 50.37351 1.26129 23526 ft 447 kts 317°
2026-05-04 20:10 50.39685 1.22923 22645 ft 445 kts 317°
2026-05-04 20:10 50.42002 1.19727 21794 ft 444 kts 317°
2026-05-04 20:11 50.44316 1.16523 20951 ft 443 kts 317°
2026-05-04 20:11 50.46620 1.13329 20143 ft 440 kts 318°
2026-05-04 20:11 50.48907 1.10152 19359 ft 438 kts 318°
2026-05-04 20:11 50.51184 1.06976 18593 ft 437 kts 317°
2026-05-04 20:12 50.53296 1.03552 17774 ft 436 kts 313°
2026-05-04 20:12 50.55362 1.00082 16929 ft 434 kts 313°
2026-05-04 20:12 50.57409 0.96621 16260 ft 429 kts 313°
2026-05-04 20:12 50.59405 0.93244 16042 ft 414 kts 313°
2026-05-04 20:13 50.61330 0.89983 15998 ft 397 kts 313°
2026-05-04 20:13 50.63176 0.86851 16014 ft 386 kts 314°
2026-05-04 20:13 50.64996 0.83759 16010 ft 384 kts 313°
2026-05-04 20:13 50.66770 0.80742 16016 ft 366 kts 313°
2026-05-04 20:14 50.68432 0.77830 16014 ft 350 kts 311°
2026-05-04 20:14 50.69965 0.74931 15840 ft 340 kts 309°
2026-05-04 20:14 50.71436 0.72022 15500 ft 337 kts 308°
2026-05-04 20:14 50.72875 0.69126 15147 ft 334 kts 308°
2026-05-04 20:15 50.74304 0.66255 14804 ft 331 kts 308°
2026-05-04 20:15 50.75729 0.63411 14468 ft 329 kts 309°
2026-05-04 20:15 50.77146 0.60600 14129 ft 326 kts 309°
2026-05-04 20:15 50.78528 0.57872 13791 ft 317 kts 309°
2026-05-04 20:16 50.79916 0.55137 13284 ft 313 kts 309°
2026-05-04 20:16 50.81270 0.52472 12757 ft 309 kts 309°
2026-05-04 20:16 50.82610 0.49836 12239 ft 306 kts 309°
2026-05-04 20:16 50.83935 0.47225 11740 ft 304 kts 309°
2026-05-04 20:17 50.85265 0.44598 11238 ft 308 kts 309°
2026-05-04 20:17 50.86153 0.42842 10910 ft 309 kts 309°
2026-05-04 20:17 50.87502 0.40172 10420 ft 312 kts 309°
2026-05-04 20:17 50.88858 0.37486 9941 ft 313 kts 308°
2026-05-04 20:18 50.90218 0.34786 9401 ft 314 kts 308°
2026-05-04 20:18 50.91580 0.32080 8887 ft 314 kts 308°
2026-05-04 20:18 50.92934 0.29382 8354 ft 309 kts 308°
2026-05-04 20:18 50.94252 0.26756 7846 ft 299 kts 308°
2026-05-04 20:19 50.95527 0.24204 7345 ft 290 kts 308°
2026-05-04 20:19 50.96744 0.21740 7059 ft 274 kts 308°
2026-05-04 20:19 50.97872 0.19436 7027 ft 256 kts 308°
2026-05-04 20:19 50.98933 0.17270 7021 ft 244 kts 308°
2026-05-04 20:20 50.99955 0.15187 7021 ft 231 kts 308°
2026-05-04 20:20 51.00888 0.13190 7012 ft 223 kts 302°
2026-05-04 20:20 51.01553 0.10935 6669 ft 227 kts 288°
2026-05-04 20:20 51.01859 0.08478 6323 ft 228 kts 274°
2026-05-04 20:21 51.01961 0.05964 5961 ft 228 kts 274°
2026-05-04 20:21 51.02069 0.03447 5601 ft 229 kts 275°
2026-05-04 20:21 51.02284 -0.01536 4886 ft 220 kts 275°
2026-05-04 20:22 51.02387 -0.03934 4533 ft 217 kts 275°
2026-05-04 20:22 51.02491 -0.06316 4178 ft 221 kts 275°
2026-05-04 20:22 51.02598 -0.08798 3816 ft 224 kts 275°
2026-05-04 20:22 51.02703 -0.11247 3466 ft 227 kts 275°
2026-05-04 20:23 51.02810 -0.13762 3115 ft 229 kts 275°
2026-05-04 20:23 51.02913 -0.16237 3024 ft 218 kts 275°
2026-05-04 20:23 51.03012 -0.18627 3034 ft 214 kts 275°
2026-05-04 20:23 51.03110 -0.20970 3036 ft 216 kts 275°
2026-05-04 20:24 51.03207 -0.23353 3038 ft 216 kts 275°
2026-05-04 20:24 51.03304 -0.25758 3042 ft 222 kts 275°
2026-05-04 20:24 51.03405 -0.28231 3040 ft 226 kts 275°
2026-05-04 20:24 51.03506 -0.30718 3035 ft 226 kts 275°
2026-05-04 20:25 51.03607 -0.33215 3036 ft 226 kts 275°
2026-05-04 20:25 51.03707 -0.35711 3034 ft 227 kts 275°
2026-05-04 20:25 51.03806 -0.38209 3035 ft 226 kts 275°
2026-05-04 20:25 51.03903 -0.40708 3034 ft 225 kts 275°
2026-05-04 20:26 51.03997 -0.43106 3029 ft 219 kts 275°
2026-05-04 20:26 51.04092 -0.45540 3032 ft 217 kts 275°
2026-05-04 20:26 51.04185 -0.47930 3033 ft 217 kts 275°
2026-05-04 20:26 51.04280 -0.50316 3033 ft 216 kts 275°
2026-05-04 20:27 51.04472 -0.52674 3015 ft 215 kts 292°
2026-05-04 20:27 51.05429 -0.54366 3035 ft 208 kts 339°
2026-05-04 20:27 51.06775 -0.54545 3045 ft 190 kts 14°
2026-05-04 20:27 51.08055 -0.54170 3035 ft 185 kts
2026-05-04 20:28 51.09259 -0.53548 3035 ft 181 kts 35°
2026-05-04 20:28 51.10068 -0.52203 3027 ft 167 kts 62°
2026-05-04 20:28 51.10418 -0.50483 3042 ft 163 kts 77°
2026-05-04 20:28 51.10667 -0.48722 3036 ft 162 kts 76°
2026-05-04 20:29 51.10913 -0.46980 3035 ft 161 kts 76°
2026-05-04 20:29 51.11153 -0.45277 3069 ft 161 kts 76°
2026-05-04 20:29 51.11395 -0.43556 3013 ft 159 kts 76°
2026-05-04 20:29 51.11636 -0.41843 2877 ft 158 kts 76°
2026-05-04 20:30 51.11874 -0.40148 2685 ft 154 kts 76°
2026-05-04 20:30 51.12103 -0.38509 2491 ft 149 kts 76°
2026-05-04 20:30 51.12325 -0.36922 2295 ft 145 kts 76°
2026-05-04 20:30 51.12542 -0.35376 2102 ft 141 kts 76°
2026-05-04 20:31 51.12753 -0.33863 1926 ft 139 kts 76°
2026-05-04 20:31 51.12945 -0.32492 1750 ft 140 kts 76°
2026-05-04 20:31 51.13152 -0.31006 1554 ft 137 kts 76°
2026-05-04 20:31 51.13356 -0.29543 1373 ft 135 kts 76°
2026-05-04 20:32 51.13558 -0.28093 1188 ft 134 kts 76°
2026-05-04 20:32 51.13694 -0.27111 1052 ft 134 kts 77°
2026-05-04 20:32 51.13896 -0.25658 875 ft 134 kts 76°
2026-05-04 20:32 51.14099 -0.24195 696 ft 135 kts 77°
2026-05-04 20:33 51.14305 -0.22742 492 ft 135 kts 75°
2026-05-04 20:33 51.14507 -0.21287 276 ft 134 kts 76°
2026-05-04 20:33 51.14700 -0.19943 210 ft 107 kts 78°
2026-05-04 20:33 51.14820 -0.19057 207 ft 57 kts 77°
2026-05-04 20:34 51.14905 -0.18580 202 ft 37 kts 55°
2026-05-04 20:34 51.15047 -0.18309 209 ft 28 kts 50°
2026-05-04 20:34 51.15126 -0.18082 205 ft 20 kts 75°
2026-05-04 20:34 51.15151 -0.17900 205 ft 15 kts 76°
2026-05-04 20:35 51.15169 -0.17786 205 ft 7 kts 76°
2026-05-04 20:35 51.15176 -0.17738 212 ft 3 kts 76°
2026-05-04 20:35 51.15181 -0.17705 207 ft 4 kts 77°
2026-05-04 20:35 51.15188 -0.17650 213 ft 6 kts 78°
2026-05-04 20:36 51.15200 -0.17561 204 ft 10 kts 78°
2026-05-04 20:36 51.15215 -0.17444 204 ft 12 kts 78°
2026-05-04 20:36 51.15233 -0.17309 212 ft 13 kts 75°
2026-05-04 20:36 51.15257 -0.17160 204 ft 14 kts 77°
2026-05-04 20:37 51.15279 -0.16998 207 ft 15 kts 78°
2026-05-04 20:37 51.15299 -0.16851 204 ft 11 kts 78°
2026-05-04 20:37 51.15314 -0.16734 204 ft 7 kts 77°
2026-05-04 20:37 51.15343 -0.16685 204 ft 7 kts
2026-05-04 20:38 51.15379 -0.16731 204 ft 7 kts 286°
2026-05-04 20:38 51.15374 -0.16816 211 ft 8 kts 255°
2026-05-04 20:38 51.15360 -0.16908 208 ft 9 kts 258°
2026-05-04 20:38 51.15347 -0.17011 204 ft 10 kts 259°
2026-05-04 20:39 51.15332 -0.17121 204 ft 11 kts 258°
2026-05-04 20:39 51.15317 -0.17239 214 ft 11 kts 258°
2026-05-04 20:39 51.15321 -0.17355 216 ft 11 kts 322°
2026-05-04 20:39 51.15395 -0.17386 210 ft 12 kts 349°
2026-05-04 20:40 51.15478 -0.17412 208 ft 13 kts 348°
2026-05-04 20:40 51.15568 -0.17445 204 ft 14 kts 347°
2026-05-04 20:40 51.15664 -0.17480 204 ft 15 kts 347°
2026-05-04 20:40 51.15761 -0.17478 205 ft 14 kts 52°
2026-05-04 20:41 51.15788 -0.17328 204 ft 15 kts 78°
2026-05-04 20:41 51.15805 -0.17195 204 ft 10 kts 78°
2026-05-04 20:41 51.15828 -0.17090 206 ft 11 kts 40°
2026-05-04 20:41 51.15895 -0.17097 214 ft 11 kts 315°
2026-05-04 20:42 51.15936 -0.17164 204 ft 0 kts 314°